time_stamp(utc),avg(mph),gust(mph),direction(deg),12m_air_temp(f),sonic_u(cm/s),sonic_v(cm/s),sonic_w(cm/s),pressure,2m_air_temp(f),pyranometer(W/m^2)
"2020-04-28 00:01:18+00",10.3,11.3,,49,-134,425,15,1015.96,48.2,0
"2020-04-28 00:06:18+00",11.6,13.6,,48.9,-185,471,19,1016.03,48.1,0
"2020-04-28 00:11:18+00",10.6,12.6,,48.9,-202,417,31,1016.09,48.1,0
"2020-04-28 00:16:18+00",10.5,11.5,,48.9,-282,376,40,1016.17,48.2,0
"2020-04-28 00:21:18+00",12.9,14.9,,49,-378,429,58,1016.3,48.2,0
"2020-04-28 00:26:18+00",16.3,18.3,,48.8,-536,498,57,1016.38,48.4,0
"2020-04-28 00:31:18+00",14.9,15.9,,48.4,-511,426,57,1016.51,48.2,0
"2020-04-28 00:36:18+00",17.0,19.0,,48.1,-554,526,60,1016.66,48.1,0
"2020-04-28 00:41:18+00",14.8,16.8,,47.9,-450,491,65,1016.78,47.9,0
"2020-04-28 00:46:18+00",12.5,14.5,,47.7,-358,439,61,1016.8,47.7,0
"2020-04-28 00:51:18+00",16.2,18.2,,47.9,-363,617,46,1017.02,47.6,0
"2020-04-28 00:56:18+00",17.7,19.7,,47.9,-186,750,23,1017.13,47.6,0
"2020-04-28 01:01:18+00",15.0,17.0,,47.4,-7,658,18,1017.17,47.3,0
"2020-04-28 01:06:18+00",12.0,14.0,,47.3,-45,530,14,1017.19,47,0
"2020-04-28 01:11:18+00",13.9,16.9,,47.5,-213,569,34,1017.33,47,0
"2020-04-28 01:16:18+00",16.1,18.1,,47.4,-145,687,42,1017.47,47,0
"2020-04-28 01:21:18+00",17.5,21.5,,47.2,-175,752,40,1017.58,46.9,0
"2020-04-28 01:26:18+00",17.0,21.0,,47,-124,740,25,1017.7,46.8,0
"2020-04-28 01:31:18+00",15.4,17.4,,46.8,-112,670,8,1017.78,46.7,0
"2020-04-28 01:36:18+00",14.8,16.8,,46.6,-123,641,24,1017.77,46.5,0
"2020-04-28 01:41:18+00",15.0,18.0,,46.4,-108,651,25,1017.79,46.3,0
"2020-04-28 01:46:18+00",12.7,15.7,,46.4,-118,536,20,1017.81,46.2,0
"2020-04-28 01:51:18+00",12.8,13.8,,46.4,-175,537,22,1017.91,46.2,0
"2020-04-28 01:56:18+00",15.0,17.0,,46.4,-237,614,20,1017.98,46.1,0
"2020-04-28 02:01:18+00",11.3,12.3,,46.4,-193,448,39,1018.02,46.2,0
"2020-04-28 02:06:18+00",12.4,14.4,,46.4,-161,519,25,1018.01,46.1,0
"2020-04-28 02:11:18+00",13.1,15.1,,46.3,-127,564,4,1017.93,46.1,0
"2020-04-28 02:16:18+00",14.7,15.7,,46.4,-168,625,12,1017.92,46.1,0
"2020-04-28 02:21:18+00",13.5,15.5,,46.4,-157,569,3,1017.91,46.1,0
"2020-04-28 02:26:18+00",14.0,17.0,,46.6,-196,582,19,1017.93,46.1,0
"2020-04-28 02:31:18+00",11.9,13.9,,46.6,-151,496,23,1017.94,46.1,0
"2020-04-28 02:36:18+00",12.1,13.1,,46.5,-144,502,25,1017.87,46.2,0
"2020-04-28 02:41:18+00",11.2,14.2,,46.5,-162,444,24,1017.76,46.2,0
"2020-04-28 02:46:18+00",10.3,12.3,,46.5,-190,402,24,1017.7,46.2,0
"2020-04-28 02:51:18+00",10.1,11.1,,46.6,-228,377,42,1017.76,46.2,0
"2020-04-28 02:56:18+00",11.3,13.3,,46.4,-263,419,49,1017.68,46.2,0
"2020-04-28 03:01:18+00",12.3,14.3,,46.3,-259,488,35,1017.76,46.1,0
"2020-04-28 03:06:18+00",13.3,14.3,,46.2,-303,497,39,1017.78,45.9,0
"2020-04-28 03:11:18+00",14.7,17.7,,46,-371,538,52,1017.83,45.7,0
"2020-04-28 03:16:18+00",14.0,15.0,,45.8,-336,514,44,1017.9,45.5,0
"2020-04-28 03:21:18+00",15.8,16.8,,45.7,-381,586,49,1017.94,45.4,0
"2020-04-28 03:26:18+00",13.5,15.5,,45.6,-284,517,45,1017.97,45.2,0
"2020-04-28 03:31:18+00",16.1,18.1,,45.6,-369,606,38,1018.01,45.2,0
"2020-04-28 03:36:18+00",13.2,16.2,,45.6,-301,503,53,1018.09,45.2,0
"2020-04-28 03:41:18+00",15.6,21.6,,45.9,-344,591,43,1018.16,45.4,0
"2020-04-28 03:46:18+00",15.6,17.6,,46.1,-233,642,19,1018.16,45.5,0
"2020-04-28 03:51:18+00",14.2,16.2,,46.2,-185,600,28,1018.12,45.7,0
"2020-04-28 03:56:18+00",14.3,16.3,,46.2,-163,605,22,1018.12,45.7,0
"2020-04-28 04:01:18+00",16.3,19.3,,46.2,-189,695,11,1018.08,45.7,0
"2020-04-28 04:06:18+00",16.1,19.1,,46.1,-183,693,34,1018.12,45.6,0
"2020-04-28 04:11:18+00",16.0,19.0,,46,-203,682,27,1018.28,45.6,0
"2020-04-28 04:16:18+00",17.4,18.4,,46.1,-254,730,28,1018.34,45.7,0
"2020-04-28 04:21:18+00",15.9,18.9,,46.1,-205,669,32,1018.2,45.7,0
"2020-04-28 04:26:18+00",14.6,17.6,,46.1,-141,632,35,1018.14,45.7,0
"2020-04-28 04:31:18+00",15.5,17.5,,46,-193,653,16,1018.12,45.6,0
"2020-04-28 04:36:18+00",15.2,17.2,,45.8,-235,636,41,1018.18,45.4,0
"2020-04-28 04:41:18+00",15.0,17.0,,45.6,-214,624,35,1018.15,45.2,0
"2020-04-28 04:46:18+00",14.3,16.3,,45.4,-162,606,31,1018.13,45,0
"2020-04-28 04:51:18+00",12.7,14.7,,45.3,-123,546,29,1018.1,44.8,0
"2020-04-28 04:56:18+00",13.0,14.0,,45.1,-168,547,25,1018.05,44.7,0
"2020-04-28 05:01:18+00",13.1,15.1,,45.1,-165,549,28,1018.04,44.6,0
"2020-04-28 05:06:18+00",12.8,15.8,,44.9,-208,527,20,1018.02,44.5,0
"2020-04-28 05:11:18+00",12.2,14.2,,44.9,-257,472,42,1017.92,44.4,0
"2020-04-28 05:16:18+00",13.7,15.7,,44.8,-295,526,39,1018.05,44.3,0
"2020-04-28 05:21:18+00",14.4,15.4,,44.8,-340,531,45,1018.11,44.3,0
"2020-04-28 05:26:18+00",14.4,15.4,,44.7,-349,514,32,1018.19,44.3,0
"2020-04-28 05:31:18+00",11.7,12.7,,44.7,-322,406,53,1018.23,44.3,0
"2020-04-28 05:36:18+00",13.3,15.3,,44.7,-428,402,42,1018.19,44.2,0
"2020-04-28 05:41:18+00",13.8,15.8,,44.7,-439,422,52,1018.28,44.3,0
"2020-04-28 05:46:18+00",14.0,16.0,,44.6,-463,414,67,1018.36,44.3,0
"2020-04-28 05:51:18+00",14.1,16.1,,44.4,-528,357,54,1018.54,44.2,0
"2020-04-28 05:56:18+00",15.5,17.5,,44.2,-600,349,70,1018.52,44,0
"2020-04-28 06:01:18+00",14.0,17.0,,44.2,-513,359,56,1018.47,43.9,0
"2020-04-28 06:06:18+00",12.8,14.8,,44.1,-423,375,61,1018.25,43.8,0
"2020-04-28 06:11:18+00",14.7,16.7,,44.1,-503,429,58,1018.21,43.7,0
"2020-04-28 06:16:18+00",14.4,15.4,,44,-458,452,56,1018.25,43.6,0
"2020-04-28 06:21:18+00",14.6,15.6,,43.9,-418,483,47,1018.27,43.5,0
"2020-04-28 06:26:18+00",14.7,16.7,,43.7,-499,437,72,1018.29,43.4,0
"2020-04-28 06:31:18+00",14.3,16.3,,43.5,-432,465,50,1018.33,43.3,0
"2020-04-28 06:36:18+00",13.5,14.5,,43.3,-419,419,55,1018.43,43.1,0
"2020-04-28 06:41:18+00",15.7,16.7,,43,-527,498,39,1018.48,42.9,0
"2020-04-28 06:46:18+00",13.4,16.4,,43,-423,444,48,1018.44,42.8,0
"2020-04-28 06:51:18+00",15.4,17.4,,42.9,-510,502,34,1018.47,42.7,0
"2020-04-28 06:56:18+00",14.9,17.9,,42.8,-507,491,42,1018.46,42.6,0
"2020-04-28 07:01:18+00",15.2,17.2,,42.8,-453,487,63,1018.46,42.5,0
"2020-04-28 07:06:18+00",15.4,16.4,,42.6,-561,624,-43,1018.52,42.4,0
"2020-04-28 07:11:18+00",13.2,15.2,,42.5,-466,512,-6,1018.67,42.3,0
"2020-04-28 07:16:18+00",14.6,16.6,,42.4,-545,570,-30,1018.66,42.1,0
"2020-04-28 07:21:18+00",15.6,17.6,,42.3,-658,780,-149,1018.75,42.1,0
"2020-04-28 07:26:18+00",16.5,17.5,,42.1,-832,1055,-309,1018.83,42,0
"2020-04-28 07:31:18+00",14.6,16.6,,42,-694,820,-187,1018.92,41.9,0
"2020-04-28 07:36:18+00",15.8,17.8,,41.7,-931,1242,-423,1018.81,41.8,0
"2020-04-28 07:41:18+00",15.3,17.3,,41.6,-1074,1621,-574,1018.79,41.5,0
"2020-04-28 07:46:18+00",12.6,14.6,,41.4,-703,1118,-358,1018.77,41.3,0
"2020-04-28 07:51:18+00",14.2,16.2,,40.9,-1017,1688,-649,1018.77,40.9,0
"2020-04-28 07:56:18+00",13.3,15.3,,40.6,-1004,1659,-645,1018.91,40.5,0
"2020-04-28 08:01:18+00",11.9,13.9,,40.6,-749,1213,-437,1018.99,40.3,0
"2020-04-28 08:06:18+00",11.5,12.5,,40.5,-648,1052,-349,1018.98,40.2,0
"2020-04-28 08:11:18+00",12.7,14.7,,40.5,-826,1387,-494,1019.06,40.1,0
"2020-04-28 08:16:18+00",11.5,13.5,,40.4,-731,1194,-428,1019.05,40,0
"2020-04-28 08:21:18+00",11.7,12.7,,40.3,-683,1145,-391,1019.15,39.9,0
"2020-04-28 08:26:18+00",11.2,12.2,,40.3,-664,1068,-358,1019.1,39.8,0
"2020-04-28 08:31:18+00",10.3,12.3,,40.3,-502,712,-196,1019.25,39.8,0
"2020-04-28 08:36:18+00",11.8,13.8,,40.5,-632,862,-274,1019.3,39.9,0
"2020-04-28 08:41:18+00",15.1,16.1,,40.5,-1262,1849,-715,1019.34,40.1,0
"2020-04-28 08:46:18+00",14.7,15.7,,40.5,-1248,1911,-755,1019.31,40.1,0
"2020-04-28 08:51:18+00",11.8,13.8,,40.4,-658,967,-284,1019.34,40.1,0
"2020-04-28 08:56:18+00",13.9,14.9,,40.4,-1029,1505,-568,1019.51,40.1,0
"2020-04-28 09:01:18+00",13.6,16.6,,40.3,-967,1312,-491,1019.47,40.1,0
"2020-04-28 09:06:18+00",13.0,14.0,,40.3,-755,996,-333,1019.54,40,0
"2020-04-28 09:11:18+00",12.2,13.2,,40.2,-719,1017,-337,1019.47,40,0
"2020-04-28 09:16:18+00",12.3,15.3,,40.2,-673,871,-258,1019.43,39.9,0
"2020-04-28 09:21:18+00",11.8,14.8,,40.2,-661,940,-280,1019.51,39.9,0
"2020-04-28 09:26:18+00",12.6,14.6,,40.1,-842,1278,-444,1019.63,39.9,0
"2020-04-28 09:31:18+00",14.6,15.6,,40,-1239,1863,-725,1019.76,39.8,0
"2020-04-28 09:36:18+00",14.3,16.3,,40.1,-1253,1947,-780,1019.68,39.8,0
"2020-04-28 09:41:18+00",12.7,14.7,,40.1,-791,1137,-359,1019.83,39.8,0
"2020-04-28 09:46:18+00",14.1,16.1,,40.2,-1087,1636,-634,1019.9,39.8,0
"2020-04-28 09:51:18+00",13.1,14.1,,40.3,-779,1140,-384,1020.08,39.9,0
"2020-04-28 09:56:18+00",14.1,16.1,,40.1,-1017,1571,-593,1020.12,39.8,0
"2020-04-28 10:01:18+00",12.9,14.9,,39.7,-998,1612,-599,1020.09,39.5,0
"2020-04-28 10:06:18+00",12.0,13.0,,39.5,-1144,1947,-796,1020.01,39.3,0
"2020-04-28 10:11:18+00",11.9,13.9,,39.4,-1015,1783,-696,1020.03,39.1,0
"2020-04-28 10:16:18+00",11.6,12.6,,39.5,-864,1489,-571,1020.06,39.1,0
"2020-04-28 10:21:18+00",12.4,14.4,,39.6,-331,585,-38,1020.16,39.1,0
"2020-04-28 10:26:18+00",12.5,13.5,,39.7,-730,1323,-442,1020.09,39.2,0
"2020-04-28 10:31:18+00",12.2,15.2,,39.7,-885,1612,-603,1020.03,39.3,0
"2020-04-28 10:36:18+00",10.6,12.6,,40,-508,952,-271,1020.1,39.4,0
"2020-04-28 10:41:18+00",11.9,14.9,,40.3,-567,1270,-425,1020.19,39.6,0
"2020-04-28 10:46:18+00",12.3,14.3,,40.3,-795,1629,-623,1020.17,39.7,0
"2020-04-28 10:51:18+00",10.8,12.8,,40.1,-608,1268,-443,1020.34,39.7,0
"2020-04-28 10:56:18+00",10.1,12.1,,39.9,-501,1081,-368,1020.38,39.7,0
"2020-04-28 11:01:18+00",10.0,12.0,,39.8,-635,1322,-480,1020.46,39.6,1.3
"2020-04-28 11:06:18+00",9.2,11.2,,39.7,-445,835,-267,1020.49,39.6,3.8
"2020-04-28 11:11:18+00",10.6,11.6,,39.8,-589,1149,-405,1020.54,39.6,8.4
"2020-04-28 11:16:18+00",11.1,12.1,,39.9,-700,1361,-508,1020.61,39.7,10.1
"2020-04-28 11:21:18+00",10.5,12.5,,40,-493,967,-297,1020.72,39.8,14.1
"2020-04-28 11:26:18+00",9.5,10.5,,40.1,-427,804,-238,1020.67,39.9,24.9
"2020-04-28 11:31:18+00",10.3,12.3,,40.3,-370,663,-144,1020.71,40.2,32.1
"2020-04-28 11:36:18+00",10.1,12.1,,40.5,-228,439,8,1020.8,40.5,36.8
"2020-04-28 11:41:18+00",11.1,13.1,,40.9,-276,480,3,1020.89,40.8,32
"2020-04-28 11:46:18+00",8.5,11.5,,41.1,-225,301,53,1020.91,41.1,30.7
"2020-04-28 11:51:18+00",9.9,11.9,,41.2,-236,363,25,1020.96,41.3,34.2
"2020-04-28 11:56:18+00",9.8,11.8,,41.5,-189,375,37,1020.91,41.5,40.7
"2020-04-28 12:01:18+00",11.0,13.0,,41.7,-239,416,46,1020.93,41.8,62.9
"2020-04-28 12:06:18+00",9.7,13.7,,42,-205,361,37,1020.95,42.1,67.7
"2020-04-28 12:11:18+00",10.2,13.2,,42.1,-173,401,29,1020.93,42.4,71.7
"2020-04-28 12:16:18+00",11.8,14.8,,42.3,-155,495,14,1020.95,42.7,77.6
"2020-04-28 12:21:18+00",11.1,12.1,,42.6,-134,460,12,1021.07,43.2,185.6
"2020-04-28 12:26:18+00",10.0,12.0,,42.9,-151,401,35,1021.05,43.8,98.5
"2020-04-28 12:31:18+00",12.2,14.2,,43.1,-97,531,14,1021,44.2,208.2
"2020-04-28 12:36:18+00",12.4,14.4,,43.4,-120,532,3,1020.98,44.8,153.7
"2020-04-28 12:41:18+00",12.9,14.9,,43.7,-95,564,36,1020.92,45.4,217.4
"2020-04-28 12:46:18+00",11.4,14.4,,43.8,-54,489,23,1020.95,46.1,255.7
"2020-04-28 12:51:18+00",13.4,14.4,,44.3,55,575,0,1020.93,47,230.1
"2020-04-28 12:56:18+00",12.4,14.4,,44.5,-92,537,18,1020.93,47.3,211
"2020-04-28 13:01:18+00",12.5,13.5,,44.5,16,537,15,1020.97,47.4,291.1
"2020-04-28 13:06:18+00",12.3,13.3,,44.8,62,538,0,1020.95,48.1,229.9
"2020-04-28 13:11:18+00",9.1,11.1,,45.2,-40,400,19,1020.92,48.6,302.1
"2020-04-28 13:16:18+00",10.9,12.9,,45.2,10,464,16,1020.94,48.8,303
"2020-04-28 13:21:18+00",8.3,10.3,,45.5,-7,355,16,1021,49.2,347.4
"2020-04-28 13:26:18+00",10.1,12.1,,46,-155,419,30,1021.08,49.6,360.4
"2020-04-28 13:31:18+00",10.8,12.8,,46.4,-173,438,23,1020.99,49.9,369.8
"2020-04-28 13:36:18+00",12.2,13.2,,46.8,-69,529,10,1021,50.6,378.4
"2020-04-28 13:41:18+00",9.9,12.9,,47.2,-111,405,45,1020.94,50.9,390.1
"2020-04-28 13:46:18+00",11.8,13.8,,47.4,18,508,14,1020.98,51.1,401.1
"2020-04-28 13:51:18+00",10.4,14.4,,47.7,36,445,4,1020.87,51.6,408.4
"2020-04-28 13:56:18+00",11.3,13.3,,48.1,-18,487,32,1020.83,51.9,417.5
"2020-04-28 14:01:18+00",7.8,9.8,,48.3,19,333,11,1020.84,52.3,427.7
"2020-04-28 14:06:18+00",8.6,9.6,,48.9,43,352,22,1020.82,52.9,436.6
"2020-04-28 14:11:18+00",9.4,12.4,,49.5,77,387,13,1020.8,53.3,445.5
"2020-04-28 14:16:18+00",8.4,9.4,,49.5,-93,352,12,1020.78,53.5,455.2
"2020-04-28 14:21:18+00",8.8,9.8,,50.2,-102,341,62,1020.82,53.6,463
"2020-04-28 14:26:18+00",12.9,14.9,,49.7,-335,457,26,1020.83,53.1,474
"2020-04-28 14:31:18+00",12.6,13.6,,50.2,-211,511,12,1020.86,53.1,482.4
"2020-04-28 14:36:18+00",13.1,16.1,,50.7,-63,571,17,1020.85,53.3,494
"2020-04-28 14:41:18+00",13.0,16.0,,50.8,-136,550,16,1020.88,53.8,506.3
"2020-04-28 14:46:18+00",10.2,11.2,,51,17,443,15,1021.01,54.6,498.8
"2020-04-28 14:51:18+00",10.2,12.2,,51,-58,436,27,1020.97,55,496.9
"2020-04-28 14:56:18+00",9.6,11.6,,51.5,-104,402,18,1021.04,55.3,518.4
"2020-04-28 15:01:18+00",6.3,8.3,,51.9,-18,260,-6,1021.1,55.5,522.5
"2020-04-28 15:06:18+00",10.3,11.3,,51.7,-223,389,6,1021.11,55.2,528.8
"2020-04-28 15:11:18+00",14.6,18.6,,52.4,-344,484,35,1020.94,55.4,534.4
"2020-04-28 15:16:18+00",11.8,15.8,,52.7,-109,500,-4,1021.01,55.8,540.4
"2020-04-28 15:21:18+00",8.8,11.8,,52.8,-229,305,30,1020.97,55.8,546.6
"2020-04-28 15:26:18+00",9.8,11.8,,53.1,-337,275,50,1020.91,56,551.5
"2020-04-28 15:31:18+00",7.6,9.6,,52.8,-263,209,51,1020.9,56.1,553.7
"2020-04-28 15:36:18+00",9.2,11.2,,53.1,-380,170,31,1020.9,56.6,555
"2020-04-28 15:41:18+00",6.9,8.9,,53.2,-282,123,31,1020.85,57.1,556
"2020-04-28 15:46:18+00",14.4,16.4,,54.6,-260,578,51,1020.88,57.5,563.6
"2020-04-28 15:51:18+00",13.8,15.8,,54.9,-97,598,7,1020.79,57.6,564.1
"2020-04-28 15:56:18+00",11.0,15.0,,55.5,-158,455,42,1020.84,58,573
"2020-04-28 16:01:18+00",14.6,16.6,,55.6,-193,606,34,1020.86,58.2,576
"2020-04-28 16:06:18+00",13.4,15.4,,55.6,-59,580,-1,1020.76,58.6,578.3
"2020-04-28 16:11:18+00",14.1,17.1,,55.8,-79,607,31,1020.77,59,577.9
"2020-04-28 16:16:18+00",13.9,19.9,,56.2,-171,566,36,1020.7,59.5,577.4
"2020-04-28 16:21:18+00",12.0,13.0,,55.6,-404,339,53,1020.73,59,578.7
"2020-04-28 16:26:18+00",14.8,16.8,,56,-396,522,52,1020.66,58.7,580.2
"2020-04-28 16:31:18+00",17.1,19.1,,56,-598,486,45,1020.66,58.3,582.6
"2020-04-28 16:36:18+00",17.3,20.3,,56.3,-650,445,78,1020.61,58.3,507.8
"2020-04-28 16:41:18+00",18.3,21.3,,56.2,-642,517,69,1020.6,58.1,586.2
"2020-04-28 16:46:18+00",11.6,13.6,,56.6,-405,315,87,1020.53,58.4,554.2
"2020-04-28 16:51:18+00",17.0,19.0,,57.1,-496,559,42,1020.56,58.8,585.4
"2020-04-28 16:56:18+00",12.7,14.7,,57.2,-394,405,43,1020.46,59.1,582.8
"2020-04-28 17:01:18+00",9.9,11.9,,57.2,-332,283,26,1020.55,59.2,577.5
"2020-04-28 17:06:18+00",8.9,9.9,,57.4,-375,156,49,1020.48,59.7,573.8
"2020-04-28 17:11:18+00",8.0,9.0,,57.3,-332,128,16,1020.46,60.3,564.5
"2020-04-28 17:16:18+00",12.2,14.2,,57.6,-445,308,46,1020.33,60.9,562.4
"2020-04-28 17:21:18+00",11.6,13.6,,57.9,-439,276,57,1020.34,60.9,558.5
"2020-04-28 17:26:18+00",7.9,11.9,,58.1,-329,155,26,1020.2,61.1,556.5
"2020-04-28 17:31:18+00",10.0,12.0,,58,-439,-42,-1,1020.41,61.4,552.7
"2020-04-28 17:36:18+00",17.0,21.0,,52.6,-2735,3550,-2164,1020.33,57.2,536.5
"2020-04-28 17:41:18+00",17.4,21.4,,52,-2303,2684,-1662,1020.43,55.1,533.7
"2020-04-28 17:46:18+00",19.8,23.8,,51.6,-2072,2564,-1750,1020.27,54.1,532.4
"2020-04-28 17:51:18+00",19.2,23.2,,51.4,-2476,3269,-2167,1020.42,53.8,531.9
"2020-04-28 18:01:18+00",19.8,23.8,,51.6,-2714,3466,-2245,1020.21,53.7,522.5
"2020-04-28 18:06:18+00",20.9,23.9,,51.3,-687,485,-442,1020.21,53.5,515.2
"2020-04-28 18:11:18+00",16.6,22.6,,51.9,-1068,1095,-842,1020.16,53.7,506.8
"2020-04-28 18:21:18+00",18.6,24.6,,52.2,-856,810,-676,1019.99,54,492.9
"2020-04-28 18:26:18+00",17.0,22.0,,52.5,-1277,1513,-1002,1019.96,54.4,486.8
"2020-04-28 18:41:18+00",15.9,20.9,,52.8,-1334,1550,-1034,1019.82,54.6,463.9
"2020-04-28 18:51:18+00",17.4,22.4,,54,-1900,2556,-1616,1019.69,55.8,448.4
"2020-04-28 19:01:18+00",12.5,15.5,,54.3,-963,989,-799,1019.58,55.8,428.3
"2020-04-28 19:06:18+00",11.6,17.6,,55.1,-641,586,-509,1019.48,56.3,424.2
"2020-04-28 19:11:18+00",11.0,17.0,,55.2,-489,413,-383,1019.48,56.9,415
"2020-04-28 19:16:18+00",14.0,17.0,,55.5,-1043,1200,-990,1019.41,57.1,406.4
"2020-04-28 19:21:18+00",11.4,17.4,,55.1,-744,735,-593,1019.49,56.8,402.7
"2020-04-28 19:31:18+00",13.0,17.0,,55.8,-1161,1407,-989,1019.27,57.3,383.3
"2020-04-28 19:36:18+00",13.3,18.3,,56.2,-1288,1706,-1185,1019.24,57.5,372.7
"2020-04-28 19:41:18+00",15.2,18.2,,56.2,-1676,2184,-1401,1019.09,57.7,361.7
"2020-04-28 19:46:18+00",14.2,19.2,,56.7,-1892,2623,-1610,1019.02,58.1,360.9
"2020-04-28 19:56:18+00",13.5,19.5,,57.5,-2111,3362,-2028,1018.92,59.2,327.4
"2020-04-28 20:16:18+00",15.3,19.3,,57.4,-1704,2535,-1614,1018.76,58.7,305.6
"2020-04-28 20:21:18+00",13.0,18.0,,57.7,-2098,3088,-1811,1018.85,59.1,282.2
"2020-04-28 20:31:18+00",15.7,19.7,,57.1,-1279,1862,-1302,1018.85,58.6,211.7
"2020-04-28 20:36:18+00",12.9,16.9,,57,-1677,2513,-1539,1018.83,58.6,226.9
"2020-04-28 20:41:18+00",12.8,15.8,,56.6,-1309,1797,-1236,1018.81,58,216.1
"2020-04-28 20:46:18+00",11.9,14.9,,56.2,-1690,2400,-1581,1019.01,57.5,193.4
"2020-04-28 20:51:18+00",10.5,13.5,,56,-2152,3230,-2002,1018.91,57.1,159
"2020-04-28 21:01:18+00",8.8,10.8,,58.2,-2289,3450,-2087,1018.98,58.7,170.3
"2020-04-28 21:06:18+00",7.5,9.5,,59.5,-936,985,-653,1018.94,60,182.8
"2020-04-28 21:11:18+00",8.8,10.8,,60.5,-386,62,37,1018.91,61.1,132.3
"2020-04-28 21:16:18+00",16.0,20.0,,61.1,-711,20,51,1018.75,61.9,80.8
"2020-04-28 21:21:18+00",16.1,18.1,,60.6,-715,30,61,1018.84,61.8,63.8
"2020-04-28 21:26:18+00",17.5,19.5,,60.8,-766,31,25,1018.94,61.6,72.1
"2020-04-28 21:31:18+00",15.2,18.2,,60.8,-668,-12,22,1018.97,61.5,73.1
"2020-04-28 21:36:18+00",15.4,17.4,,60.6,-683,-15,35,1018.93,61.6,62.8
"2020-04-28 21:41:18+00",16.7,19.7,,60.3,-809,109,-69,1018.95,61.3,52.2
"2020-04-28 21:46:18+00",14.5,16.5,,60,-829,339,-167,1018.98,61.1,48.9
"2020-04-28 21:51:18+00",14.1,18.1,,59.9,-1027,695,-388,1018.95,60.8,45.5
"2020-04-28 21:56:18+00",19.0,22.0,,60,-1842,1713,-940,1019.03,60.6,43.2
"2020-04-28 22:01:18+00",17.4,20.4,,60.1,-1870,1914,-1003,1018.96,60.4,32.7
"2020-04-28 22:06:18+00",17.0,20.0,,60.1,-1829,1816,-1017,1019.11,60.2,37.5
"2020-04-28 22:11:18+00",14.5,15.5,,60,-1409,1314,-720,1019.15,60.2,58.4
"2020-04-28 22:16:18+00",14.5,16.5,,60.2,-1564,1534,-870,1019.1,60.4,93.5
"2020-04-28 22:21:18+00",13.1,15.1,,58.4,-2762,3741,-2222,1019.24,60.2,89.7
"2020-04-28 22:26:18+00",14.3,18.3,,57,-2342,3039,-1839,1019.3,59.7,91.9
"2020-04-28 22:36:18+00",14.5,16.5,,55.6,-2395,3015,-1813,1019.32,57.5,62.3
"2020-04-28 22:41:18+00",18.8,21.8,,55.2,-3020,3828,-2286,1019.3,56.7,49.9
"2020-04-28 22:46:18+00",18.0,21.0,,54.9,-2772,3449,-2152,1019.29,56.1,38.3
"2020-04-28 22:51:18+00",20.0,22.0,,54.5,-2823,3407,-2073,1019.41,55.6,29.3
"2020-04-28 22:56:18+00",19.4,23.4,,54.3,-2912,3521,-2181,1019.39,55.3,21.6
"2020-04-28 23:01:18+00",20.3,23.3,,54,-3052,3725,-2235,1019.48,54.8,0.9
"2020-04-28 23:06:18+00",15.5,17.5,,53.8,-2113,2325,-1494,1019.62,54.5,2.1
"2020-04-28 23:11:18+00",17.6,20.6,,53.5,-2267,2501,-1606,1019.66,54,0.1
"2020-04-28 23:16:18+00",16.3,19.3,,53.3,-2177,2370,-1528,1019.74,53.7,0
"2020-04-28 23:21:18+00",17.6,20.6,,53.3,-2264,2437,-1568,1019.85,53.5,0
"2020-04-28 23:26:18+00",15.7,19.7,,53.2,-1836,1884,-1210,1019.79,53.3,0
"2020-04-28 23:31:18+00",15.1,17.1,,53.2,-1685,1655,-1080,1019.9,53.2,0
"2020-04-28 23:36:18+00",16.0,19.0,,53.3,-1959,2030,-1312,1019.77,53.1,0
"2020-04-28 23:41:18+00",17.7,19.7,,53.2,-2378,2612,-1665,1019.91,53,0
"2020-04-28 23:46:18+00",17.5,20.5,,52.9,-2168,2297,-1502,1019.89,52.7,0
"2020-04-28 23:51:18+00",17.3,22.3,,52.7,-2020,2065,-1363,1019.83,52.6,0
"2020-04-28 23:56:18+00",17.9,20.9,,52.6,-2483,2808,-1783,1019.76,52.4,0
